Starlink 30209

operational
NORAD ID: 57307 Int'l Des: 2023-096 Owner: SPXS Country: US Constellation: starlink
LEOCIRCULAR

About Starlink 30209

Description loading...

Live Position

Loading 3D Globe...

Upcoming Passes

Altitude History

Altitude vs Time

uPlot chart will show altitude changes over time

Two-Line Element Set

1 57307U 23096T 25258.49098848 .00065742 00000-0 29845-2 0 9998
2 57307 42.9971 80.6425 0019320 272.2814 87.5822 15.19775771120535
Epoch: Sep 15, 2025 • Age: 70 hours

Current Status

Altitude 515.6 km
Velocity 7.60 km/s
Sub-Earth Point 22.14°N, 73.73°E
Launch Date Jul 10, 2023
Age 2.1 years
Type internet

Technical Details

Classification Payload
Mass 730.00 kg
Dry Mass 700.00 kg
Total Mass 730.00 kg
Length 0.30 m
Diameter 4.10 m
Span 29.00 m
Shape Box + pan
Manufacturer SPXS
Bus Type Starlink V2M
Phase Status In Orbit
Owner/State SPXS/US

Large Constellations

Loading constellations...